| time (UTC) | temp C | wind direction | speed KPH | gust KPH | rain 1hr cm | rain 24hr cm | rain mn cm | humidity % | barometer mb |
| 20260903180504 | 35 | 194 | 3.2 | 12.9 | 0.00 | 0.00 | 0.00 | 56 | 1011.6 |
| 20260903180004 | 34 | 107 | 6.4 | 8.0 | 0.00 | 0.00 | 0.00 | 57 | 1011.7 |
| 20260903175504 | 35 | 244 | 6.4 | 8.0 | 0.00 | 0.00 | 0.00 | 56 | 1011.7 |
| 20260903175004 | 34 | 169 | 1.6 | 17.7 | 0.00 | 0.00 | 0.00 | 57 | 1011.8 |
| 20260903174504 | 34 | 155 | 12.9 | 17.7 | 0.00 | 0.00 | 0.00 | 57 | 1011.8 |
| 20260903174004 | 34 | 205 | 6.4 | 8.0 | 0.00 | 0.00 | 0.00 | 59 | 1011.8 |
| 20260903173504 | 34 | 270 | 3.2 | 14.5 | 0.00 | 0.00 | 0.00 | 59 | 1011.9 |
| 20260903173004 | 34 | 104 | 12.9 | 14.5 | 0.00 | 0.00 | 0.00 | 59 | 1011.9 |
| 20260903172504 | 34 | 290 | 3.2 | 11.3 | 0.00 | 0.00 | 0.00 | 60 | 1012.0 |
| 20260903172004 | 33 | 134 | 6.4 | 6.4 | 0.00 | 0.00 | 0.00 | 61 | 1012.0 |
| 20260903171503 | 33 | 325 | 3.2 | 14.5 | 0.00 | 0.00 | 0.00 | 61 | 1012.2 |
| 20260903171003 | 33 | 180 | 8.0 | 16.1 | 0.00 | 0.00 | 0.00 | 61 | 1012.2 |
| 20260903170033 | 33 | 216 | 6.4 | 27.4 | 0.00 | 0.00 | 0.00 | 62 | 1012.2 |
| 20260903165503 | 33 | 233 | 3.2 | 8.0 | 0.00 | 0.00 | 0.00 | 63 | 1012.3 |
| 20260903165003 | 33 | 115 | 6.4 | 16.1 | 0.00 | 0.00 | 0.00 | 63 | 1012.3 |
| 20260903164503 | 33 | 252 | 6.4 | 16.1 | 0.00 | 0.00 | 0.00 | 63 | 1012.4 |
| 20260903164004 | 32 | 148 | 6.4 | 12.9 | 0.00 | 0.00 | 0.00 | 64 | 1012.4 |
| 20260903163533 | 32 | 239 | 4.8 | 12.9 | 0.00 | 0.00 | 0.00 | 64 | 1012.4 |
| 20260903163033 | 32 | 171 | 3.2 | 12.9 | 0.00 | 0.00 | 0.00 | 65 | 1012.5 |
| 20260903162033 | 32 | 205 | 1.6 | 12.9 | 0.00 | 0.00 | 0.00 | 67 | 1012.5 |
| 20260903161033 | 32 | 292 | 4.8 | 16.1 | 0.00 | 0.00 | 0.00 | 68 | 1012.6 |
| 20260903160533 | 32 | 119 | 3.2 | 12.9 | 0.00 | 0.00 | 0.00 | 69 | 1012.4 |
| 20260903160033 | 31 | 281 | 0.0 | 9.7 | 0.00 | 0.00 | 0.00 | 69 | 1012.3 |
| 20260903155533 | 31 | 209 | 3.2 | 9.7 | 0.00 | 0.00 | 0.00 | 69 | 1012.4 |
| 20260903154533 | 31 | 254 | 1.6 | 11.3 | 0.00 | 0.00 | 0.00 | 70 | 1012.5 |
| 20260903154032 | 31 | 223 | 4.8 | 17.7 | 0.00 | 0.00 | 0.00 | 71 | 1012.4 |
| 20260903153532 | 30 | 196 | 4.8 | 17.7 | 0.00 | 0.00 | 0.00 | 72 | 1012.4 |
| 20260903152032 | 30 | 171 | 3.2 | 8.0 | 0.00 | 0.00 | 0.00 | 73 | 1012.4 |
| 20260903151532 | 30 | 274 | 4.8 | 8.0 | 0.00 | 0.00 | 0.00 | 74 | 1012.5 |
| 20260903151032 | 30 | 293 | 1.6 | 11.3 | 0.00 | 0.00 | 0.00 | 74 | 1012.5 |
| 20260903150532 | 30 | 135 | 4.8 | 19.3 | 0.00 | 0.00 | 0.00 | 73 | 1012.4 |
| 20260903150032 | 30 | 234 | 8.0 | 19.3 | 0.00 | 0.00 | 0.00 | 73 | 1012.4 |
| 20260903145532 | 30 | 306 | 4.8 | 12.9 | 0.00 | 0.00 | 0.00 | 74 | 1012.4 |
| 20260903145032 | 30 | 187 | 3.2 | 11.3 | 0.00 | 0.00 | 0.00 | 74 | 1012.4 |
| 20260903144532 | 30 | 267 | 6.4 | 11.3 | 0.00 | 0.00 | 0.00 | 74 | 1012.4 |
| 20260903144032 | 30 | 28 | 4.8 | 11.3 | 0.00 | 0.00 | 0.00 | 75 | 1012.4 |
| 20260903143532 | 30 | 162 | 6.4 | 11.3 | 0.00 | 0.00 | 0.00 | 75 | 1012.3 |
| 20260903143032 | 30 | 212 | 6.4 | 14.5 | 0.00 | 0.00 | 0.00 | 75 | 1012.3 |
| 20260903142532 | 29 | 171 | 8.0 | 14.5 | 0.00 | 0.00 | 0.00 | 75 | 1012.2 |
| 20260903142031 | 29 | 270 | 3.2 | 11.3 | 0.00 | 0.00 | 0.00 | 76 | 1012.3 |
| 20260903141532 | 29 | 236 | 3.2 | 20.9 | 0.00 | 0.00 | 0.00 | 76 | 1012.3 |
| 20260903141031 | 29 | 226 | 8.0 | 20.9 | 0.00 | 0.00 | 0.00 | 76 | 1012.4 |
| 20260903140531 | 28 | 309 | 3.2 | 16.1 | 0.00 | 0.00 | 0.00 | 77 | 1012.4 |
| 20260903140031 | 28 | 128 | 3.2 | 8.0 | 0.00 | 0.00 | 0.00 | 77 | 1012.4 |
| 20260903135031 | 28 | 269 | 1.6 | 11.3 | 0.00 | 0.00 | 0.00 | 78 | 1012.5 |
| 20260903134531 | 28 | 307 | 3.2 | 14.5 | 0.00 | 0.00 | 0.00 | 78 | 1012.5 |
| 20260903134031 | 28 | 159 | 8.0 | 14.5 | 0.00 | 0.00 | 0.00 | 78 | 1012.5 |
| 20260903133031 | 28 | 236 | 4.8 | 11.3 | 0.00 | 0.00 | 0.00 | 79 | 1012.5 |
| 20260903132531 | 28 | 228 | 3.2 | 11.3 | 0.00 | 0.00 | 0.00 | 79 | 1012.6 |
| 20260903132031 | 28 | 130 | 4.8 | 11.3 | 0.00 | 0.00 | 0.00 | 79 | 1012.6 |
| 20260903131531 | 28 | 212 | 0.0 | 6.4 | 0.00 | 0.00 | 0.00 | 80 | 1012.5 |
| 20260903131031 | 28 | 201 | 3.2 | 8.0 | 0.00 | 0.00 | 0.00 | 79 | 1012.5 |
| 20260903130531 | 28 | 226 | 6.4 | 8.0 | 0.00 | 0.00 | 0.00 | 80 | 1012.5 |
| 20260903130031 | 27 | 247 | 1.6 | 8.0 | 0.00 | 0.00 | 0.00 | 80 | 1012.5 |
| 20260903125531 | 27 | 200 | 3.2 | 8.0 | 0.00 | 0.00 | 0.00 | 80 | 1012.5 |
| 20260903124530 | 27 | 150 | 0.0 | 8.0 | 0.00 | 0.00 | 0.00 | 80 | 1012.4 |
| 20260903124031 | 27 | 184 | 4.8 | 8.0 | 0.00 | 0.00 | 0.00 | 80 | 1012.3 |
| 20260903123531 | 27 | 223 | 3.2 | 4.8 | 0.00 | 0.00 | 0.00 | 80 | 1012.3 |
| 20260903123030 | 27 | 161 | 3.2 | 4.8 | 0.00 | 0.00 | 0.00 | 80 | 1012.2 |
| 20260903122530 | 27 | 240 | 3.2 | 8.0 | 0.00 | 0.00 | 0.00 | 80 | 1012.2 |
| 20260903122031 | 27 | 199 | 4.8 | 8.0 | 0.00 | 0.00 | 0.00 | 80 | 1012.2 |
| 20260903121031 | 27 | 228 | 4.8 | 9.7 | 0.00 | 0.00 | 0.00 | 80 | 1012.0 |
| 20260903120530 | 27 | 176 | 0.0 | 9.7 | 0.00 | 0.00 | 0.00 | 80 | 1012.1 |
| 20260903120030 | 27 | 205 | 3.2 | 9.7 | 0.00 | 0.00 | 0.00 | 80 | 1012.1 |
| 20260903115530 | 27 | 283 | 3.2 | 6.4 | 0.00 | 0.00 | 0.00 | 80 | 1012.1 |
| 20260903115030 | 27 | 212 | 1.6 | 8.0 | 0.00 | 0.00 | 0.00 | 80 | 1012.1 |
| 20260903114530 | 27 | 159 | 6.4 | 8.0 | 0.00 | 0.00 | 0.00 | 80 | 1012.1 |
| 20260903114030 | 27 | 210 | 3.2 | 9.7 | 0.00 | 0.00 | 0.00 | 80 | 1012.0 |
| 20260903113530 | 27 | 296 | 1.6 | 9.7 | 0.00 | 0.00 | 0.00 | 80 | 1011.9 |
| 20260903112530 | 27 | 208 | 4.8 | 8.0 | 0.00 | 0.00 | 0.00 | 80 | 1011.9 |
| 20260903112030 | 27 | 205 | 4.8 | 8.0 | 0.00 | 0.00 | 0.00 | 80 | 1011.9 |
| 20260903111530 | 27 | 210 | 0.0 | 6.4 | 0.00 | 0.00 | 0.00 | 80 | 1011.9 |
| 20260903111030 | 27 | 169 | 6.4 | 6.4 | 0.00 | 0.00 | 0.00 | 80 | 1011.9 |
| 20260903110030 | 27 | 292 | 0.0 | 8.0 | 0.00 | 0.00 | 0.00 | 80 | 1012.0 |
| 20260903105530 | 27 | 143 | 4.8 | 8.0 | 0.00 | 0.00 | 0.00 | 80 | 1012.0 |
| 20260903105030 | 27 | 180 | 4.8 | 8.0 | 0.00 | 0.00 | 0.00 | 80 | 1011.9 |
| 20260903104530 | 27 | 234 | 6.4 | 8.0 | 0.00 | 0.00 | 0.00 | 80 | 1011.9 |
| 20260903104029 | 27 | 211 | 3.2 | 11.3 | 0.00 | 0.00 | 0.00 | 80 | 1011.8 |
| 20260903103529 | 27 | 148 | 1.6 | 11.3 | 0.00 | 0.00 | 0.00 | 80 | 1011.7 |
| 20260903103029 | 27 | 125 | 0.0 | 11.3 | 0.00 | 0.00 | 0.00 | 80 | 1011.7 |
| 20260903102529 | 27 | 162 | 1.6 | 11.3 | 0.00 | 0.00 | 0.00 | 80 | 1011.7 |
| 20260903102029 | 27 | 198 | 4.8 | 6.4 | 0.00 | 0.00 | 0.00 | 80 | 1011.8 |
| 20260903100529 | 27 | 130 | 4.8 | 6.4 | 0.00 | 0.00 | 0.00 | 80 | 1011.7 |
| 20260903100029 | 27 | 203 | 3.2 | 6.4 | 0.00 | 0.00 | 0.00 | 80 | 1011.7 |
| 20260903095029 | 27 | 165 | 1.6 | 6.4 | 0.00 | 0.00 | 0.00 | 80 | 1011.8 |
| 20260903094529 | 27 | 194 | 4.8 | 6.4 | 0.00 | 0.00 | 0.00 | 80 | 1011.9 |
| 20260903094029 | 27 | 259 | 1.6 | 6.4 | 0.00 | 0.00 | 0.00 | 80 | 1011.9 |
| 20260903093529 | 27 | 120 | 3.2 | 6.4 | 0.00 | 0.00 | 0.00 | 80 | 1011.9 |
| 20260903093029 | 27 | 159 | 0.0 | 6.4 | 0.00 | 0.00 | 0.00 | 80 | 1012.0 |
| 20260903092029 | 27 | 209 | 3.2 | 4.8 | 0.00 | 0.00 | 0.00 | 79 | 1012.0 |
| 20260903091529 | 27 | 202 | 1.6 | 3.2 | 0.00 | 0.00 | 0.00 | 79 | 1012.1 |
| 20260903091030 | 27 | 165 | 0.0 | 4.8 | 0.00 | 0.00 | 0.00 | 79 | 1011.9 |
| 20260903090529 | 27 | 209 | 3.2 | 11.3 | 0.00 | 0.00 | 0.00 | 79 | 1012.1 |
| 20260903090028 | 27 | 129 | 11.3 | 11.3 | 0.00 | 0.00 | 0.00 | 79 | 1012.1 |
| 20260903085528 | 27 | 208 | 6.4 | 9.7 | 0.00 | 0.00 | 0.00 | 79 | 1012.1 |
| 20260903085028 | 27 | 202 | 1.6 | 8.0 | 0.00 | 0.00 | 0.00 | 79 | 1012.1 |
| 20260903084528 | 27 | 203 | 4.8 | 8.0 | 0.00 | 0.00 | 0.00 | 78 | 1012.1 |
| 20260903084028 | 27 | 50 | 3.2 | 11.3 | 0.00 | 0.00 | 0.00 | 78 | 1012.0 |
| 20260903083528 | 27 | 161 | 1.6 | 11.3 | 0.00 | 0.00 | 0.00 | 78 | 1012.0 |
| 20260903083028 | 27 | 169 | 1.6 | 4.8 | 0.00 | 0.00 | 0.00 | 78 | 1012.0 |
| 20260903082528 | 28 | 213 | 1.6 | 9.7 | 0.00 | 0.00 | 0.00 | 78 | 1012.0 |
| 20260903082028 | 28 | 241 | 3.2 | 9.7 | 0.00 | 0.00 | 0.00 | 78 | 1012.0 |
| 20260903081528 | 28 | 226 | 0.0 | 11.3 | 0.00 | 0.00 | 0.00 | 78 | 1012.0 |
| 20260903081028 | 28 | 113 | 0.0 | 11.3 | 0.00 | 0.00 | 0.00 | 77 | 1011.9 |
| 20260903080528 | 28 | 236 | 1.6 | 8.0 | 0.00 | 0.00 | 0.00 | 77 | 1012.0 |
| 20260903080028 | 28 | 217 | 6.4 | 8.0 | 0.00 | 0.00 | 0.00 | 77 | 1012.1 |
| 20260903074528 | 28 | 170 | 0.0 | 8.0 | 0.00 | 0.00 | 0.00 | 76 | 1012.2 |
| 20260903074028 | 28 | 128 | 0.0 | 8.0 | 0.00 | 0.00 | 0.00 | 76 | 1012.2 |
| 20260903073528 | 28 | 169 | 0.0 | 12.9 | 0.00 | 0.00 | 0.00 | 75 | 1012.3 |
| 20260903073027 | 28 | 141 | 1.6 | 12.9 | 0.00 | 0.00 | 0.00 | 75 | 1012.3 |
| 20260903072527 | 28 | 207 | 3.2 | 6.4 | 0.00 | 0.00 | 0.00 | 75 | 1012.3 |
| 20260903072027 | 28 | 155 | 0.0 | 6.4 | 0.00 | 0.00 | 0.00 | 75 | 1012.3 |
| 20260903071527 | 28 | 209 | 6.4 | 6.4 | 0.00 | 0.00 | 0.00 | 74 | 1012.3 |
| 20260903071027 | 28 | 173 | 4.8 | 11.3 | 0.00 | 0.00 | 0.00 | 74 | 1012.3 |
| 20260903070527 | 28 | 206 | 3.2 | 11.3 | 0.00 | 0.00 | 0.00 | 74 | 1012.4 |
| 20260903070027 | 28 | 135 | 3.2 | 6.4 | 0.00 | 0.00 | 0.00 | 73 | 1012.3 |
| 20260903065527 | 28 | 223 | 1.6 | 8.0 | 0.00 | 0.00 | 0.00 | 73 | 1012.4 |
| 20260903064527 | 28 | 107 | 6.4 | 8.0 | 0.00 | 0.00 | 0.00 | 72 | 1012.4 |
| 20260903063527 | 28 | 190 | 0.0 | 11.3 | 0.00 | 0.00 | 0.00 | 71 | 1012.5 |
| 20260903063027 | 28 | 132 | 1.6 | 11.3 | 0.00 | 0.00 | 0.00 | 71 | 1012.5 |
| 20260903062527 | 28 | 111 | 1.6 | 9.7 | 0.00 | 0.00 | 0.00 | 71 | 1012.5 |
| 20260903062027 | 29 | 222 | 4.8 | 9.7 | 0.00 | 0.00 | 0.00 | 70 | 1012.4 |
| 20260903061527 | 29 | 132 | 1.6 | 6.4 | 0.00 | 0.00 | 0.00 | 70 | 1012.4 |
| 20260903061026 | 29 | 134 | 6.4 | 6.4 | 0.00 | 0.00 | 0.00 | 69 | 1012.4 |
| 20260903060526 | 29 | 190 | 3.2 | 6.4 | 0.00 | 0.00 | 0.00 | 68 | 1012.4 |
| 20260903060027 | 29 | 132 | 4.8 | 8.0 | 0.00 | 0.00 | 0.00 | 68 | 1012.4 |
| 20260903055526 | 29 | 232 | 1.6 | 8.0 | 0.00 | 0.00 | 0.00 | 67 | 1012.5 |
| 20260903055026 | 29 | 261 | 3.2 | 6.4 | 0.00 | 0.00 | 0.00 | 66 | 1012.5 |
| 20260903054526 | 29 | 131 | 0.0 | 12.9 | 0.00 | 0.00 | 0.00 | 66 | 1012.4 |
| 20260903054026 | 29 | 109 | 6.4 | 14.5 | 0.00 | 0.00 | 0.00 | 65 | 1012.5 |
| 20260903053526 | 30 | 148 | 9.7 | 16.1 | 0.00 | 0.00 | 0.00 | 65 | 1012.4 |
| 20260903053026 | 30 | 144 | 3.2 | 16.1 | 0.00 | 0.00 | 0.00 | 64 | 1012.4 |
| 20260903052526 | 30 | 113 | 9.7 | 16.1 | 0.00 | 0.00 | 0.00 | 63 | 1012.3 |
| 20260903052026 | 30 | 134 | 8.0 | 29.0 | 0.00 | 0.00 | 0.00 | 63 | 1012.3 |
| 20260903051026 | 30 | 267 | 3.2 | 20.9 | 0.00 | 0.00 | 0.00 | 61 | 1012.3 |
| 20260903050526 | 30 | 149 | 4.8 | 12.9 | 0.00 | 0.00 | 0.00 | 60 | 1012.4 |
| 20260903045526 | 30 | 154 | 6.4 | 9.7 | 0.00 | 0.00 | 0.00 | 59 | 1012.4 |
| 20260903045026 | 30 | 141 | 3.2 | 12.9 | 0.00 | 0.00 | 0.00 | 59 | 1012.3 |
| 20260903044526 | 30 | 105 | 12.9 | 14.5 | 0.00 | 0.00 | 0.00 | 58 | 1012.3 |
| 20260903044026 | 30 | 125 | 4.8 | 14.5 | 0.00 | 0.00 | 0.00 | 58 | 1012.2 |
| 20260903043526 | 30 | 103 | 3.2 | 11.3 | 0.00 | 0.00 | 0.00 | 58 | 1012.1 |
| 20260903043026 | 30 | 121 | 6.4 | 19.3 | 0.00 | 0.00 | 0.00 | 58 | 1012.1 |
| 20260903042525 | 30 | 128 | 19.3 | 19.3 | 0.00 | 0.00 | 0.00 | 58 | 1012.1 |
| 20260903042025 | 30 | 114 | 4.8 | 8.0 | 0.00 | 0.00 | 0.00 | 59 | 1011.9 |
| 20260903041025 | 31 | 250 | 0.0 | 16.1 | 0.00 | 0.00 | 0.00 | 60 | 1011.9 |
| 20260903040525 | 31 | 130 | 3.2 | 16.1 | 0.00 | 0.00 | 0.00 | 60 | 1012.0 |
| 20260903040025 | 31 | 105 | 6.4 | 12.9 | 0.00 | 0.00 | 0.00 | 59 | 1012.0 |
| 20260903035525 | 31 | 126 | 8.0 | 12.9 | 0.00 | 0.00 | 0.00 | 59 | 1011.9 |
| 20260903035025 | 31 | 182 | 3.2 | 16.1 | 0.00 | 0.00 | 0.00 | 58 | 1011.9 |
| 20260903034525 | 31 | 108 | 16.1 | 16.1 | 0.00 | 0.00 | 0.00 | 58 | 1011.9 |
| 20260903034025 | 31 | 107 | 3.2 | 16.1 | 0.00 | 0.00 | 0.00 | 58 | 1011.8 |
| 20260903033525 | 31 | 90 | 6.4 | 17.7 | 0.00 | 0.00 | 0.00 | 57 | 1011.9 |
| 20260903032525 | 32 | 169 | 11.3 | 20.9 | 0.00 | 0.00 | 0.00 | 56 | 1011.9 |
| 20260903032025 | 32 | 128 | 4.8 | 20.9 | 0.00 | 0.00 | 0.00 | 55 | 1011.8 |
| 20260903031524 | 32 | 130 | 14.5 | 20.9 | 0.00 | 0.00 | 0.00 | 55 | 1011.8 |
| 20260903031025 | 32 | 109 | 3.2 | 11.3 | 0.00 | 0.00 | 0.00 | 54 | 1011.6 |
| 20260903030525 | 32 | 206 | 6.4 | 11.3 | 0.00 | 0.00 | 0.00 | 53 | 1011.6 |
| 20260903030024 | 32 | 132 | 6.4 | 11.3 | 0.00 | 0.00 | 0.00 | 53 | 1011.4 |
| 20260903025525 | 32 | 94 | 1.6 | 4.8 | 0.00 | 0.00 | 0.00 | 53 | 1011.1 |
| 20260903025024 | 32 | 74 | 3.2 | 3.2 | 0.00 | 0.00 | 0.00 | 52 | 1011.0 |
| 20260903024524 | 32 | 110 | 0.0 | 6.4 | 0.00 | 0.00 | 0.00 | 52 | 1010.8 |
| 20260903024024 | 32 | 117 | 6.4 | 11.3 | 0.00 | 0.00 | 0.00 | 52 | 1010.7 |
| 20260903023024 | 32 | 97 | 0.0 | 4.8 | 0.00 | 0.00 | 0.00 | 52 | 1010.5 |
| 20260903022524 | 32 | 117 | 1.6 | 4.8 | 0.00 | 0.00 | 0.00 | 52 | 1010.4 |
| 20260903022024 | 32 | 113 | 0.0 | 4.8 | 0.00 | 0.00 | 0.00 | 52 | 1010.4 |
| 20260903021524 | 32 | 157 | 3.2 | 4.8 | 0.00 | 0.00 | 0.00 | 51 | 1010.3 |
| 20260903021024 | 33 | 123 | 3.2 | 8.0 | 0.00 | 0.00 | 0.00 | 51 | 1010.2 |
| 20260903020024 | 33 | 110 | 1.6 | 3.2 | 0.00 | 0.00 | 0.00 | 51 | 1010.1 |
| 20260903015524 | 33 | 148 | 1.6 | 4.8 | 0.00 | 0.00 | 0.00 | 49 | 1010.0 |
| 20260903015023 | 33 | 148 | 1.6 | 4.8 | 0.00 | 0.00 | 0.00 | 49 | 1009.9 |
| 20260903014524 | 33 | 50 | 0.0 | 11.3 | 0.00 | 0.00 | 0.00 | 49 | 1009.7 |
| 20260903014024 | 33 | 115 | 9.7 | 11.3 | 0.00 | 0.00 | 0.00 | 48 | 1009.7 |
| 20260903013524 | 33 | 319 | 1.6 | 3.2 | 0.00 | 0.00 | 0.00 | 47 | 1009.5 |
| 20260903013024 | 33 | 52 | 0.0 | 1.6 | 0.00 | 0.00 | 0.00 | 47 | 1009.5 |
| 20260903012023 | 34 | 87 | 0.0 | 0.0 | 0.00 | 0.00 | 0.00 | 46 | 1009.5 |
| 20260903011523 | 34 | 87 | 0.0 | 4.8 | 0.00 | 0.00 | 0.00 | 46 | 1009.5 |
| 20260903011024 | 34 | 15 | 0.0 | 4.8 | 0.00 | 0.00 | 0.00 | 46 | 1009.6 |
| 20260903010523 | 35 | 53 | 1.6 | 4.8 | 0.00 | 0.00 | 0.00 | 45 | 1009.6 |
| 20260903005523 | 35 | 57 | 1.6 | 3.2 | 0.00 | 0.00 | 0.00 | 44 | 1009.5 |
| 20260903005023 | 35 | 46 | 3.2 | 6.4 | 0.00 | 0.00 | 0.00 | 44 | 1009.5 |
| 20260903004523 | 36 | 107 | 1.6 | 6.4 | 0.00 | 0.00 | 0.00 | 43 | 1009.6 |
| 20260903003523 | 36 | 161 | 3.2 | 9.7 | 0.00 | 0.00 | 0.00 | 41 | 1009.6 |
| 20260903003023 | 37 | 355 | 1.6 | 9.7 | 0.00 | 0.00 | 0.00 | 41 | 1009.7 |
| 20260903002523 | 37 | 148 | 0.0 | 0.0 | 0.00 | 0.00 | 0.00 | 40 | 1009.5 |
| 20260903002023 | 37 | 148 | 0.0 | 0.0 | 0.00 | 0.00 | 0.00 | 40 | 1009.4 |
| 20260903001523 | 37 | 148 | 0.0 | 3.2 | 0.00 | 0.00 | 0.00 | 39 | 1009.5 |
| 20260903001022 | 37 | 148 | 3.2 | 3.2 | 0.00 | 0.00 | 0.00 | 39 | 1009.5 |
| 20260903000522 | 37 | 138 | 1.6 | 3.2 | 0.00 | 0.00 | 0.00 | 39 | 1009.4 |
| 20260903000022 | 37 | 138 | 0.0 | 3.2 | 0.00 | 0.00 | 0.00 | 39 | 1009.4 |
| 20260902235022 | 38 | 202 | 0.0 | 4.8 | 0.00 | 0.00 | 0.00 | 39 | 1009.5 |
| 20260902233522 | 38 | 276 | 0.0 | 3.2 | 0.00 | 0.00 | 0.00 | 39 | 1009.5 |
| 20260902233022 | 38 | 304 | 1.6 | 3.2 | 0.00 | 0.00 | 0.00 | 40 | 1009.5 |
| 20260902232522 | 38 | 250 | 1.6 | 3.2 | 0.00 | 0.00 | 0.00 | 40 | 1009.5 |
| 20260902232022 | 37 | 190 | 3.2 | 3.2 | 0.00 | 0.00 | 0.00 | 40 | 1009.5 |
| 20260902230522 | 37 | 191 | 3.2 | 6.4 | 0.00 | 0.00 | 0.00 | 42 | 1009.3 |
| 20260902230022 | 37 | 269 | 1.6 | 3.2 | 0.00 | 0.00 | 0.00 | 41 | 1009.3 |
| 20260902225021 | 36 | 304 | 1.6 | 3.2 | 0.00 | 0.00 | 0.00 | 43 | 1009.4 |
| 20260902224521 | 36 | 296 | 0.0 | 3.2 | 0.00 | 0.00 | 0.00 | 43 | 1009.4 |
| 20260902224021 | 36 | 272 | 1.6 | 6.4 | 0.00 | 0.00 | 0.00 | 42 | 1009.4 |
| 20260902223521 | 36 | 232 | 1.6 | 6.4 | 0.00 | 0.00 | 0.00 | 43 | 1009.4 |
| 20260902223021 | 36 | 260 | 3.2 | 6.4 | 0.00 | 0.00 | 0.00 | 42 | 1009.4 |
| 20260902222521 | 36 | 331 | 1.6 | 4.8 | 0.00 | 0.00 | 0.00 | 43 | 1009.4 |
| 20260902222021 | 37 | 285 | 3.2 | 4.8 | 0.00 | 0.00 | 0.00 | 42 | 1009.3 |
| 20260902221521 | 37 | 148 | 1.6 | 6.4 | 0.00 | 0.00 | 0.00 | 43 | 1009.4 |
| 20260902221021 | 37 | 268 | 3.2 | 6.4 | 0.00 | 0.00 | 0.00 | 42 | 1009.4 |
| 20260902220521 | 36 | 355 | 3.2 | 6.4 | 0.00 | 0.00 | 0.00 | 43 | 1009.4 |
| 20260902220021 | 36 | 319 | 0.0 | 4.8 | 0.00 | 0.00 | 0.00 | 43 | 1009.6 |
| 20260902215521 | 36 | 329 | 1.6 | 8.0 | 0.00 | 0.00 | 0.00 | 43 | 1009.6 |
| 20260902215021 | 36 | 299 | 4.8 | 11.3 | 0.00 | 0.00 | 0.00 | 43 | 1009.6 |
| 20260902214521 | 36 | 303 | 6.4 | 11.3 | 0.00 | 0.00 | 0.00 | 42 | 1009.7 |
| 20260902213520 | 36 | 227 | 1.6 | 3.2 | 0.00 | 0.00 | 0.00 | 45 | 1009.7 |
| 20260902213020 | 36 | 148 | 1.6 | 6.4 | 0.00 | 0.00 | 0.00 | 45 | 1009.8 |
| 20260902212020 | 36 | 159 | 0.0 | 11.3 | 0.00 | 0.00 | 0.00 | 45 | 1009.9 |
| 20260902211520 | 36 | 95 | 4.8 | 11.3 | 0.00 | 0.00 | 0.00 | 45 | 1010.0 |
| 20260902211020 | 36 | 115 | 4.8 | 6.4 | 0.00 | 0.00 | 0.00 | 45 | 1010.0 |
| 20260902210520 | 36 | 102 | 1.6 | 6.4 | 0.00 | 0.00 | 0.00 | 45 | 1010.1 |
| 20260902210020 | 36 | 152 | 6.4 | 6.4 | 0.00 | 0.00 | 0.00 | 45 | 1010.1 |
| 20260902205520 | 36 | 300 | 1.6 | 6.4 | 0.00 | 0.00 | 0.00 | 45 | 1010.3 |
| 20260902205020 | 36 | 203 | 3.2 | 6.4 | 0.00 | 0.00 | 0.00 | 45 | 1010.5 |
| 20260902204520 | 36 | 178 | 3.2 | 6.4 | 0.00 | 0.00 | 0.00 | 45 | 1010.5 |
| 20260902204020 | 36 | 209 | 1.6 | 6.4 | 0.00 | 0.00 | 0.00 | 46 | 1010.6 |
| 20260902203520 | 36 | 246 | 3.2 | 6.4 | 0.00 | 0.00 | 0.00 | 46 | 1010.7 |
| 20260902203020 | 36 | 60 | 1.6 | 9.7 | 0.00 | 0.00 | 0.00 | 46 | 1010.7 |
| 20260902202520 | 36 | 252 | 4.8 | 11.3 | 0.00 | 0.00 | 0.00 | 46 | 1010.8 |
| 20260902202020 | 36 | 309 | 3.2 | 11.3 | 0.00 | 0.00 | 0.00 | 46 | 1010.7 |
| 20260902201519 | 36 | 145 | 3.2 | 11.3 | 0.00 | 0.00 | 0.00 | 47 | 1010.8 |
| 20260902201019 | 35 | 113 | 3.2 | 3.2 | 0.00 | 0.00 | 0.00 | 47 | 1010.8 |
| 20260902200520 | 35 | 108 | 0.0 | 4.8 | 0.00 | 0.00 | 0.00 | 46 | 1010.9 |
| 20260902200019 | 35 | 92 | 4.8 | 4.8 | 0.00 | 0.00 | 0.00 | 46 | 1011.0 |
| 20260902194519 | 35 | 107 | 1.6 | 6.4 | 0.00 | 0.00 | 0.00 | 47 | 1011.2 |
| 20260902194019 | 35 | 107 | 3.2 | 6.4 | 0.00 | 0.00 | 0.00 | 48 | 1011.3 |
| 20260902193019 | 35 | 90 | 1.6 | 9.7 | 0.00 | 0.00 | 0.00 | 49 | 1011.4 |
| 20260902192519 | 35 | 286 | 3.2 | 9.7 | 0.00 | 0.00 | 0.00 | 48 | 1011.6 |
| 20260902192019 | 35 | 145 | 1.6 | 4.8 | 0.00 | 0.00 | 0.00 | 48 | 1011.6 |
| 20260902191519 | 35 | 187 | 3.2 | 4.8 | 0.00 | 0.00 | 0.00 | 48 | 1011.7 |
| 20260902190018 | 36 | 131 | 4.8 | 6.4 | 0.00 | 0.00 | 0.00 | 47 | 1012.0 |
| 20260902185518 | 36 | 218 | 1.6 | 6.4 | 0.00 | 0.00 | 0.00 | 47 | 1012.1 |
| 20260902185019 | 36 | 298 | 3.2 | 9.7 | 0.00 | 0.00 | 0.00 | 46 | 1012.1 |
| 20260902184519 | 36 | 124 | 4.8 | 9.7 | 0.00 | 0.00 | 0.00 | 46 | 1012.2 |
| 20260902183518 | 36 | 269 | 1.6 | 6.4 | 0.00 | 0.00 | 0.00 | 46 | 1012.4 |
| 20260902183018 | 36 | 321 | 4.8 | 11.3 | 0.00 | 0.00 | 0.00 | 47 | 1012.4 |
| 20260902182519 | 36 | 289 | 4.8 | 12.9 | 0.00 | 0.00 | 0.00 | 47 | 1012.5 |
| 20260902182019 | 36 | 319 | 3.2 | 12.9 | 0.00 | 0.00 | 0.00 | 47 | 1012.6 |
| 20260902181518 | 36 | 347 | 6.4 | 6.4 | 0.00 | 0.00 | 0.00 | 48 | 1012.8 |
| 20260902181018 | 35 | 326 | 6.4 | 9.7 | 0.00 | 0.00 | 0.00 | 48 | 1012.8 |